K42C Weather Reports


Display with metric or nautical units.
time (UTC)temp
F
wind
direction
speed
MPH
gust
MPH
rain 1hr
in
rain 24hr
in
rain mn
in
humidity
%
barometer
mb
20260831033003 71 198 0.0 0.0 0.00 0.01 0.25 100 977.7
20260831032829 71 198 0.0 0.0 0.00 0.01 0.25 100 977.7
20260831031638 71 198 0.0 0.0 0.00 0.01 0.25 100 977.8
20260831031511 71 198 0.0 0.0 0.00 0.01 0.25 100 977.8
20260831030154 71 201 0.0 0.0 0.00 0.01 0.25 100 977.8
20260831025516 72 201 0.0 0.0 0.00 0.01 0.25 100 977.7
20260831024836 72 201 0.0 0.0 0.00 0.01 0.25 100 977.8
20260831024309 72 184 0.0 0.0 0.00 0.01 0.25 100 977.9
20260831024159 72 184 0.0 0.0 0.00 0.01 0.25 100 977.9
20260831023518 72 184 0.0 0.0 0.00 0.01 0.25 100 977.9
20260831022841 72 195 0.0 0.0 0.00 0.01 0.25 100 977.9
20260831022200 72 195 0.0 0.0 0.00 0.01 0.25 100 977.7
20260831021523 72 197 0.0 0.0 0.00 0.01 0.25 100 977.7
20260831020843 72 197 0.0 0.0 0.00 0.01 0.25 100 977.6
20260831020205 73 197 0.0 0.0 0.00 0.01 0.25 100 977.6
20260831015525 73 197 0.0 0.0 0.00 0.01 0.25 99 977.5
20260831014848 73 359 0.0 0.0 0.00 0.01 0.25 99 977.3
20260831014528 73 359 0.0 0.0 0.00 0.01 0.25 98 977.1
20260831014207 73 359 0.0 0.0 0.00 0.01 0.25 98 977.1
20260831013530 73 359 2.0 0.0 0.00 0.01 0.25 98 977.0
20260831013112 73 204 1.0 0.0 0.00 0.01 0.25 98 977.1
20260831012849 73 204 1.0 0.0 0.00 0.01 0.25 98 977.1
20260831012501 73 0 0.0 0.0 0.00 0.01 0.25 97 977.2
20260831012212 73 0 0.0 0.0 0.00 0.01 0.25 97 977.2
20260831011531 73 0 0.0 5.0 0.00 0.01 0.25 97 977.0
20260831010854 74 163 4.0 0.0 0.00 0.01 0.25 96 976.9
20260831010213 74 173 1.0 0.0 0.00 0.01 0.25 96 976.9
20260831005536 74 172 4.0 0.0 0.00 0.01 0.25 96 976.6
20260831004856 74 173 4.0 5.0 0.00 0.01 0.25 95 976.6
20260831004439 74 1 1.0 3.0 0.00 0.01 0.25 95 976.6
20260831004218 74 1 1.0 3.0 0.00 0.01 0.25 95 976.6
20260831003734 74 219 3.0 0.0 0.00 0.01 0.25 95 976.5
20260831003538 74 219 3.0 0.0 0.00 0.01 0.25 95 976.5
20260831003113 74 263 0.0 3.0 0.00 0.01 0.25 94 976.3
20260831002901 74 263 0.0 3.0 0.00 0.01 0.25 94 976.3
20260831002426 74 217 6.0 9.0 0.00 0.01 0.25 94 976.2
20260831002220 74 217 6.0 9.0 0.00 0.01 0.25 94 976.2
20260831001543 74 208 5.0 5.0 0.00 0.01 0.25 93 976.2
20260831000902 75 277 3.0 3.0 0.00 0.01 0.25 93 976.3
20260831000226 75 177 5.0 6.0 0.00 0.01 0.25 92 976.2
20260830235544 75 218 5.0 3.0 0.00 0.01 0.25 92 976.2
20260830234907 75 207 5.0 0.0 0.00 0.01 0.25 91 976.2
20260830234450 76 250 0.0 9.0 0.00 0.01 0.25 91 976.1
20260830234226 76 250 0.0 9.0 0.00 0.01 0.25 91 976.1
20260830233549 76 194 0.0 3.0 0.00 0.01 0.25 90 976.2
20260830233200 76 205 1.0 5.0 0.00 0.01 0.25 90 976.0
20260830232908 76 205 1.0 5.0 0.00 0.01 0.25 90 976.0
20260830232231 76 190 5.0 0.0 0.00 0.01 0.25 89 976.0
20260830231551 76 156 6.0 0.0 0.00 0.01 0.25 88 975.9
20260830230913 76 201 6.0 6.0 0.00 0.01 0.25 87 975.9
20260830230233 77 207 6.0 5.0 0.00 0.01 0.25 86 975.6
20260830225555 77 212 8.0 5.0 0.00 0.01 0.25 84 975.6
20260830224915 77 193 7.0 10.0 0.00 0.01 0.25 83 975.5
20260830224237 78 212 3.0 6.0 0.00 0.01 0.25 82 975.6
20260830223557 78 187 7.0 13.0 0.00 0.01 0.25 81 975.5
20260830223332 78 243 9.0 18.0 0.00 0.01 0.25 80 975.4
20260830222920 78 243 9.0 18.0 0.00 0.01 0.25 80 975.4
20260830222239 78 293 9.0 5.0 0.00 0.01 0.25 79 975.2
20260830221602 79 170 12.0 13.0 0.00 0.01 0.25 77 975.0
20260830220921 79 225 10.0 3.0 0.00 0.01 0.25 76 975.4
20260830220244 79 219 7.0 6.0 0.00 0.01 0.25 75 975.3
20260830215603 79 177 9.0 11.0 0.00 0.01 0.25 74 975.3
20260830214926 79 186 11.0 11.0 0.00 0.01 0.25 73 975.1
20260830213608 80 177 8.0 18.0 0.00 0.01 0.25 71 975.1
20260830212927 80 203 8.0 7.0 0.00 0.01 0.25 70 975.2
20260830212250 80 208 1.0 0.0 0.00 0.01 0.25 70 975.2
20260830211610 80 207 4.0 6.0 0.00 0.01 0.25 69 975.3
20260830210932 81 217 7.0 10.0 0.00 0.01 0.25 68 975.3
20260830210252 81 218 7.0 9.0 0.00 0.01 0.25 67 975.3
20260830205615 81 211 8.0 0.0 0.00 0.01 0.25 67 975.4
20260830204934 81 198 10.0 8.0 0.00 0.01 0.25 65 975.4
20260830204257 82 207 8.0 7.0 0.00 0.01 0.25 65 975.3
20260830203616 81 183 9.0 15.0 0.00 0.01 0.25 64 975.3
20260830202939 82 193 14.0 16.0 0.00 0.01 0.25 63 975.4
20260830202423 82 253 8.0 8.0 0.00 0.01 0.25 63 975.4
20260830202258 82 253 8.0 8.0 0.00 0.01 0.25 63 975.4
20260830201621 82 180 12.0 12.0 0.00 0.01 0.25 62 975.5
20260830201247 82 183 7.0 7.0 0.00 0.01 0.25 62 975.4
20260830200941 82 183 7.0 7.0 0.00 0.01 0.25 62 975.4
20260830200303 82 240 10.0 13.0 0.00 0.01 0.25 62 975.3
20260830195623 82 180 9.0 10.0 0.00 0.01 0.25 63 975.5
20260830194946 82 163 11.0 7.0 0.00 0.01 0.25 62 975.5
20260830194305 82 190 10.0 17.0 0.00 0.01 0.25 62 975.5
20260830193833 82 152 8.0 10.0 0.00 0.01 0.25 62 975.7
20260830193628 82 152 8.0 10.0 0.00 0.01 0.25 62 975.7
20260830192947 82 210 7.0 5.0 0.00 0.01 0.25 63 975.7
20260830192045 82 190 9.0 13.0 0.00 0.01 0.25 68 975.6
20260830191630 82 210 9.0 9.0 0.00 0.01 0.25 65 975.7
20260830190953 82 201 8.0 11.0 0.00 0.01 0.25 64 975.6
20260830190312 82 190 9.0 13.0 0.00 0.01 0.25 68 975.6
20260830185907 81 197 10.0 9.0 0.00 0.01 0.25 71 975.5
20260830185635 81 197 10.0 9.0 0.00 0.01 0.25 71 975.5
20260830184954 81 183 10.0 7.0 0.00 0.01 0.25 73 975.4
20260830184448 81 236 7.0 10.0 0.00 0.01 0.25 75 975.5
20260830184317 81 236 7.0 10.0 0.00 0.01 0.25 75 975.5
20260830183848 80 181 10.0 10.0 0.00 0.01 0.25 77 975.6
20260830183637 80 181 10.0 10.0 0.00 0.01 0.25 77 975.6
20260830183000 80 142 9.0 9.0 0.00 0.01 0.25 77 975.5
20260830182601 80 159 7.0 11.0 0.00 0.01 0.25 79 975.6
20260830182319 80 159 7.0 11.0 0.00 0.01 0.25 79 975.6
20260830181949 80 201 8.0 9.0 0.00 0.01 0.25 78 975.7
20260830181642 80 201 8.0 9.0 0.00 0.01 0.25 78 975.7
20260830181246 79 201 8.0 5.0 0.00 0.01 0.25 80 975.8
20260830181001 79 201 8.0 5.0 0.00 0.01 0.25 80 975.8
20260830180453 79 195 9.0 6.0 0.00 0.01 0.25 82 975.8
20260830180324 79 195 9.0 6.0 0.00 0.01 0.25 82 975.8
20260830175854 79 188 9.0 10.0 0.00 0.01 0.25 82 975.8
20260830175644 79 188 9.0 10.0 0.00 0.01 0.25 82 975.8
20260830175157 78 197 5.0 6.0 0.00 0.01 0.25 84 975.9
20260830175007 78 197 5.0 6.0 0.00 0.01 0.25 84 975.9
20260830174504 78 200 8.0 7.0 0.00 0.01 0.25 86 975.9
20260830174326 78 200 8.0 7.0 0.00 0.01 0.25 86 975.9
20260830173822 77 181 6.0 9.0 0.00 0.01 0.25 89 976.0
20260830173649 77 181 6.0 9.0 0.00 0.01 0.25 89 976.0
20260830173109 77 163 4.0 8.0 0.00 0.01 0.25 91 976.1
20260830173009 77 163 4.0 8.0 0.00 0.01 0.25 91 976.1
20260830172439 76 173 9.0 7.0 0.00 0.01 0.25 91 976.1
20260830172332 76 173 9.0 7.0 0.00 0.01 0.25 91 976.1
20260830171814 76 187 11.0 10.0 0.00 0.01 0.25 91 976.2
20260830171651 76 187 11.0 10.0 0.00 0.01 0.25 91 976.2
20260830171200 75 180 7.0 10.0 0.00 0.01 0.25 93 976.4
20260830171014 75 180 7.0 10.0 0.00 0.01 0.25 93 976.4
20260830170422 74 177 4.0 8.0 0.00 0.01 0.25 96 976.5
20260830170334 74 177 4.0 8.0 0.00 0.01 0.25 96 976.5
20260830165925 74 224 8.0 9.0 0.01 0.01 0.25 95 976.7
20260830165657 74 224 8.0 9.0 0.01 0.01 0.25 95 976.7
20260830165308 73 252 8.0 3.0 0.01 0.01 0.25 96 977.0
20260830165016 73 252 8.0 3.0 0.01 0.01 0.25 96 977.0
20260830164459 73 231 6.0 9.0 0.01 0.01 0.25 97 977.1
20260830164339 73 231 6.0 9.0 0.01 0.01 0.25 97 977.1
20260830163904 73 200 9.0 8.0 0.01 0.01 0.25 98 977.3
20260830163659 73 200 9.0 8.0 0.01 0.01 0.25 98 977.3
20260830163225 72 188 7.0 6.0 0.01 0.01 0.25 99 977.4
20260830163022 72 188 7.0 6.0 0.01 0.01 0.25 99 977.4
20260830162557 72 214 2.0 10.0 0.01 0.01 0.25 100 977.5
20260830162341 72 214 2.0 10.0 0.01 0.01 0.25 100 977.5
20260830161944 71 160 8.0 10.0 0.01 0.01 0.25 100 977.5
20260830161704 71 160 8.0 10.0 0.01 0.01 0.25 100 977.5
20260830161245 71 203 5.0 7.0 0.01 0.01 0.25 100 977.7
20260830161024 71 203 5.0 7.0 0.01 0.01 0.25 100 977.7
20260830160527 71 238 5.0 5.0 0.01 0.01 0.25 100 977.5
20260830160347 71 238 5.0 5.0 0.01 0.01 0.25 100 977.5
20260830160001 71 149 10.0 10.0 0.00 0.01 0.25 100 977.6
20260830155707 71 149 10.0 10.0 0.00 0.01 0.25 100 977.6
20260830155325 70 176 8.0 11.0 0.00 0.01 0.24 100 977.6
20260830155030 70 176 8.0 11.0 0.00 0.01 0.24 100 977.6
20260830154527 70 260 4.0 3.0 0.00 0.01 0.24 100 977.5
20260830154349 70 260 4.0 3.0 0.00 0.01 0.24 100 977.5
20260830153918 69 194 8.0 8.0 0.00 0.01 0.24 100 977.5
20260830153712 69 194 8.0 8.0 0.00 0.01 0.24 100 977.5
20260830153032 69 226 6.0 8.0 0.00 0.01 0.24 100 977.8
20260830152539 69 203 6.0 0.0 0.00 0.01 0.24 100 977.8
20260830152355 69 203 6.0 0.0 0.00 0.01 0.24 100 977.8
20260830151904 69 243 5.0 5.0 0.00 0.01 0.24 100 977.7
20260830151714 69 243 5.0 5.0 0.00 0.01 0.24 100 977.7
20260830151037 69 207 6.0 7.0 0.00 0.01 0.24 100 977.8
20260830150357 69 226 2.0 8.0 0.00 0.01 0.24 100 977.8
20260830145720 68 183 5.0 9.0 0.00 0.01 0.24 100 977.9
20260830145039 68 203 5.0 5.0 0.00 0.01 0.24 100 978.1
20260830144402 68 180 9.0 6.0 0.00 0.01 0.24 100 978.1
20260830143917 68 173 3.0 5.0 0.00 0.01 0.24 100 978.1
20260830143722 68 173 3.0 5.0 0.00 0.01 0.24 100 978.1
20260830143045 68 180 5.0 6.0 0.00 0.01 0.24 100 978.0
20260830142404 68 187 8.0 4.0 0.00 0.01 0.24 100 978.1
20260830141727 68 203 4.0 8.0 0.00 0.01 0.24 100 978.2
20260830141047 68 203 7.0 6.0 0.00 0.01 0.24 100 978.2
20260830140410 68 208 3.0 0.0 0.00 0.01 0.24 100 978.4
20260830135952 67 218 7.0 6.0 0.02 0.01 0.24 100 978.4
20260830135730 67 218 7.0 6.0 0.02 0.01 0.24 100 978.4
20260830135053 67 187 4.0 6.0 0.02 0.01 0.24 100 978.4
20260830131737 66 167 6.0 7.0 0.02 0.01 0.24 100 978.4
20260830130420 66 172 8.0 10.0 0.02 0.01 0.24 100 978.5
20260830125743 66 198 7.0 8.0 0.02 0.01 0.24 100 978.6
20260830125102 66 188 8.0 12.0 0.02 0.01 0.24 100 978.5
20260830124425 65 183 6.0 6.0 0.02 0.01 0.24 100 978.6
20260830123745 65 176 8.0 7.0 0.02 0.01 0.24 100 978.8
20260830123108 66 138 2.0 4.0 0.02 0.01 0.22 100 978.8
20260830122427 65 181 2.0 8.0 0.02 0.01 0.22 100 979.1
20260830121750 65 181 0.0 0.0 0.02 0.01 0.22 100 978.9
20260830121110 65 197 5.0 2.0 0.02 0.01 0.22 100 979.0
20260830120433 65 204 4.0 0.0 0.02 0.01 0.22 100 979.1
20260830115752 65 229 0.0 0.0 0.06 0.01 0.22 100 979.0
20260830115115 65 163 2.0 4.0 0.06 0.01 0.22 100 979.1
20260830114435 65 162 1.0 5.0 0.06 0.01 0.22 100 979.1
20260830113117 65 127 1.0 0.0 0.06 0.01 0.22 100 979.1
20260830111800 65 183 3.0 4.0 0.06 0.01 0.20 100 979.5
20260830105805 65 167 0.0 4.0 0.03 0.01 0.20 100 979.2
20260830105125 65 138 2.0 0.0 0.03 0.01 0.19 100 979.1
20260830104448 66 179 1.0 4.0 0.03 0.01 0.19 100 979.1
20260830102450 66 149 4.0 6.0 0.03 0.01 0.14 100 979.0
20260830101813 66 138 0.0 0.0 0.03 0.01 0.14 100 979.2
20260830101132 66 138 0.0 0.0 0.03 0.01 0.14 100 979.3
20260830100455 66 138 4.0 0.0 0.03 0.01 0.14 100 979.2
20260830095138 66 139 5.0 6.0 0.07 0.01 0.13 100 978.8
20260830094920 66 143 5.0 5.0 0.07 0.01 0.13 100 978.9
20260830094457 66 143 5.0 5.0 0.07 0.01 0.13 100 978.9
20260830093820 66 169 6.0 5.0 0.07 0.01 0.13 100 978.7
20260830093344 66 145 6.0 5.0 0.07 0.01 0.13 100 978.4
20260830093140 66 145 6.0 5.0 0.07 0.01 0.13 100 978.4
20260830092224 66 82 5.0 5.0 0.07 0.01 0.12 100 978.6
20260830091822 66 82 5.0 5.0 0.07 0.01 0.12 100 978.6
20260830091145 66 90 5.0 7.0 0.07 0.01 0.12 100 978.7
20260830090504 66 86 4.0 4.0 0.07 0.01 0.11 100 978.8
20260830085427 67 125 0.0 0.0 0.00 0.01 0.10 100 979.0
20260830085147 67 125 0.0 0.0 0.00 0.01 0.10 100 979.0
20260830084510 67 166 0.0 0.0 0.00 0.01 0.09 100 979.0
20260830083829 67 166 0.0 0.0 0.00 0.01 0.07 100 979.1
20260830082512 67 166 4.0 0.0 0.00 0.01 0.07 100 978.7
20260830081835 67 181 4.0 6.0 0.00 0.01 0.05 100 979.0
20260830081154 67 105 0.0 0.0 0.00 0.01 0.04 100 979.0
20260830080517 67 152 0.0 0.0 0.00 0.01 0.04 100 979.2
20260830075837 67 159 5.0 3.0 0.00 0.01 0.04 100 978.9
20260830075200 67 224 4.0 3.0 0.00 0.01 0.04 100 978.7
20260830074519 67 162 6.0 6.0 0.00 0.01 0.04 100 978.7
20260830073952 67 153 6.0 5.0 0.00 0.01 0.04 100 978.7
20260830073842 67 153 6.0 5.0 0.00 0.01 0.04 100 978.7
20260830073202 67 163 7.0 5.0 0.00 0.01 0.04 100 978.8
20260830072525 67 169 6.0 6.0 0.00 0.01 0.04 100 978.9
20260830072011 67 181 6.0 5.0 0.00 0.01 0.04 100 979.1
20260830071844 67 181 6.0 5.0 0.00 0.01 0.04 100 979.1
20260830071207 67 162 1.0 5.0 0.00 0.01 0.04 100 979.3
20260830070716 67 135 2.0 0.0 0.00 0.01 0.04 100 979.4
20260830070525 67 135 2.0 0.0 0.00 0.01 0.04 100 979.4
20260830065849 67 159 6.0 4.0 0.02 0.01 0.04 100 979.4
20260830061416 67 176 5.0 6.0 0.02 0.01 0.04 100 980.0
20260830061216 67 176 5.0 6.0 0.02 0.01 0.04 100 980.0
20260830060539 67 135 3.0 3.0 0.02 0.01 0.04 100 980.2
20260830055858 67 139 3.0 3.0 0.02 0.01 0.04 100 980.1
20260830054913 67 191 2.0 3.0 0.02 0.01 0.04 100 980.3
20260830054541 67 191 2.0 3.0 0.02 0.01 0.04 100 980.3
20260830054121 67 162 1.0 4.0 0.02 0.01 0.04 100 980.2
20260830053902 67 162 1.0 4.0 0.02 0.01 0.04 100 980.2
20260830053223 67 186 3.0 4.0 0.02 0.01 0.04 100 980.3
20260830052134 67 207 3.0 3.0 0.02 0.01 0.04 100 980.3
20260830051905 67 207 3.0 3.0 0.02 0.01 0.04 100 980.3
20260830051424 67 166 4.0 0.0 0.02 0.01 0.03 100 980.2
20260830051228 67 166 4.0 0.0 0.02 0.01 0.03 100 980.2
20260830050833 67 169 6.0 7.0 0.02 0.01 0.02 100 980.2
20260830050548 67 169 6.0 7.0 0.02 0.01 0.02 100 980.2
20260830050057 67 131 0.0 0.0 0.00 0.01 0.02 100 980.3
20260830045909 67 131 0.0 0.0 0.00 0.01 0.02 100 980.3
20260830045230 68 131 0.0 0.0 0.00 0.01 0.02 100 980.4
20260830044553 68 131 0.0 0.0 0.00 0.01 0.02 100 980.4
20260830043912 68 113 4.0 0.0 0.00 0.01 0.02 100 980.2
20260830042726 68 170 4.0 3.0 0.00 0.01 0.00 100 980.3
20260830042555 68 170 4.0 3.0 0.00 0.01 0.00 100 980.3
20260830042022 68 143 3.0 4.0 0.00 0.01 0.00 100 980.3
20260830041918 68 143 3.0 4.0 0.00 0.01 0.00 100 980.3
20260830040753 68 160 1.0 0.0 0.00 0.01 0.00 100 980.2
20260830040600 68 160 1.0 0.0 0.00 0.01 0.00 100 980.2
20260830034709 68 359 0.0 0.0 0.00 0.00 0.01 100 980.2
20260830034600 68 359 0.0 0.0 0.00 0.00 0.01 100 980.2